Total_Precipitation_Accumulation
1.15 1.31 1.28 1.03 0.93 0.81 0.70 0.69 0.55 0.41 0.39 0.44 0.44 0.42 0.37 0.33 0.35 0.33 0.29 0.35 0.43 0.45 0.48 0.58 0.67 0.81 0.90 0.99 1.10 1.28 1.46 1.58 1.61 1.64 1.63 1.58 1.69 1.74 1.59 1.50 1.66 1.85 1.96 2.06
1.25 1.03 0.66 0.56 0.59 0.71 0.74 0.75 0.58 0.42 0.42 0.52 0.50 0.47 0.38 0.32 0.34 0.31 0.29 0.32 0.41 0.46 0.50 0.57 0.65 0.78 0.87 0.99 1.06 1.22 1.44 1.54 1.52 1.49 1.55 1.55 1.58 1.64 1.65 1.52 1.54 1.68 1.91 2.12
1.01 0.65 0.46 0.60 0.68 0.80 0.77 0.66 0.54 0.53 0.54 0.62 0.66 0.63 0.39 0.32 0.31 0.31 0.33 0.35 0.43 0.47 0.51 0.56 0.62 0.72 0.85 1.00 1.05 1.08 1.30 1.57 1.59 1.56 1.67 1.72 1.80 1.82 1.80 1.66 1.52 1.56 1.68 1.84
0.80 0.49 0.51 0.69 0.70 0.73 0.73 0.43 0.45 0.56 0.76 0.81 0.73 0.90 0.49 0.34 0.32 0.31 0.35 0.42 0.45 0.48 0.51 0.57 0.63 0.74 0.83 0.98 1.16 1.17 1.23 1.46 1.67 1.66 1.64 1.63 1.71 1.70 1.69 1.62 1.50 1.50 1.61 1.72
0.87 0.52 0.55 0.70 0.57 0.55 0.56 0.39 0.47 0.64 0.85 0.88 0.70 0.89 0.57 0.35 0.37 0.31 0.30 0.35 0.39 0.45 0.54 0.60 0.66 0.78 0.90 1.03 1.22 1.31 1.34 1.36 1.55 1.61 1.56 1.54 1.54 1.58 1.68 1.69 1.60 1.53 1.60 1.72
0.69 0.52 0.57 0.53 0.42 0.46 0.53 0.61 0.76 0.89 1.20 1.26 0.57 0.60 0.60 0.48 0.49 0.38 0.32 0.36 0.38 0.46 0.58 0.63 0.70 0.84 0.98 1.11 1.27 1.38 1.44 1.36 1.41 1.62 1.59 1.48 1.44 1.44 1.54 1.65 1.73 1.69 1.64 1.68
0.91 0.69 0.63 0.53 0.64 0.73 0.84 1.22 1.85 1.97 1.81 1.04 0.32 0.38 0.55 0.46 0.45 0.41 0.39 0.42 0.41 0.46 0.57 0.64 0.72 0.86 0.95 1.06 1.20 1.34 1.38 1.38 1.37 1.51 1.61 1.51 1.40 1.39 1.37 1.44 1.56 1.64 1.65 1.61
1.09 0.94 0.69 0.59 0.74 0.93 0.87 1.06 1.46 1.42 0.91 0.44 0.26 0.40 0.47 0.39 0.33 0.33 0.34 0.39 0.40 0.41 0.49 0.58 0.67 0.80 0.90 0.94 1.04 1.20 1.29 1.29 1.32 1.45 1.61 1.62 1.48 1.45 1.34 1.34 1.43 1.50 1.51 1.48
1.03 0.73 0.47 0.44 0.44 0.59 0.80 0.83 0.76 1.03 0.68 0.46 0.38 0.36 0.36 0.27 0.24 0.27 0.30 0.34 0.38 0.40 0.46 0.52 0.62 0.67 0.73 0.84 0.93 1.04 1.22 1.31 1.31 1.34 1.53 1.73 1.71 1.56 1.43 1.31 1.35 1.40 1.41 1.43
1.09 0.85 0.44 0.44 0.60 0.65 0.70 0.77 0.93 1.29 1.07 0.65 0.39 0.35 0.48 0.38 0.34 0.30 0.31 0.33 0.34 0.39 0.48 0.53 0.57 0.60 0.65 0.75 0.84 0.93 1.11 1.24 1.29 1.29 1.36 1.56 1.79 1.73 1.61 1.55 1.38 1.36 1.37 1.40
0.95 1.06 0.69 0.61 0.84 0.81 0.74 0.93 1.11 1.17 0.93 0.81 0.53 0.47 0.51 0.44 0.38 0.34 0.32 0.31 0.32 0.36 0.44 0.48 0.51 0.59 0.64 0.70 0.81 0.91 1.02 1.13 1.19 1.20 1.25 1.34 1.56 1.74 1.75 1.68 1.52 1.36 1.35 1.33
0.92 1.16 0.87 0.55 0.51 0.52 0.67 0.80 0.96 1.21 0.92 0.63 0.61 0.53 0.36 0.30 0.31 0.30 0.30 0.29 0.31 0.35 0.38 0.43 0.47 0.56 0.60 0.67 0.78 0.85 0.94 1.07 1.15 1.17 1.21 1.27 1.36 1.51 1.72 1.66 1.52 1.35 1.31 1.32
1.43 1.67 1.33 0.95 0.79 0.69 0.79 0.73 0.75 0.88 0.96 0.70 0.63 0.51 0.28 0.19 0.22 0.24 0.27 0.28 0.31 0.35 0.36 0.41 0.49 0.51 0.56 0.66 0.73 0.77 0.85 0.98 1.09 1.17 1.20 1.19 1.25 1.32 1.42 1.54 1.49 1.37 1.29 1.27
1.67 1.76 1.25 1.03 0.86 0.81 0.76 0.58 0.58 0.87 1.13 0.69 0.43 0.37 0.26 0.24 0.26 0.26 0.27 0.27 0.30 0.33 0.36 0.39 0.46 0.50 0.53 0.61 0.70 0.73 0.83 0.93 0.98 1.07 1.12 1.11 1.10 1.15 1.19 1.29 1.46 1.45 1.36 1.26
1.42 1.43 0.69 0.43 0.35 0.42 0.46 0.41 0.42 0.62 0.67 0.57 0.36 0.31 0.34 0.31 0.30 0.32 0.33 0.33 0.31 0.31 0.35 0.39 0.45 0.50 0.55 0.62 0.70 0.76 0.80 0.82 0.86 0.96 1.02 1.06 1.08 1.15 1.18 1.15 1.26 1.43 1.38 1.23
1.28 1.24 0.62 0.37 0.28 0.33 0.36 0.30 0.33 0.38 0.39 0.37 0.28 0.30 0.32 0.30 0.24 0.26 0.30 0.33 0.35 0.37 0.38 0.40 0.45 0.49 0.56 0.63 0.73 0.83 0.84 0.83 0.79 0.85 0.94 1.01 1.09 1.22 1.23 1.17 1.20 1.32 1.39 1.32
1.22 1.23 1.03 0.57 0.30 0.50 0.54 0.38 0.39 0.40 0.40 0.41 0.46 0.40 0.31 0.30 0.29 0.34 0.37 0.39 0.41 0.42 0.43 0.43 0.47 0.52 0.60 0.65 0.74 0.85 0.86 0.85 0.82 0.81 0.88 0.94 1.00 1.16 1.23 1.21 1.26 1.30 1.37 1.43
0.96 1.16 1.45 0.95 0.69 0.96 0.50 0.27 0.30 0.35 0.40 0.44 0.42 0.35 0.34 0.37 0.34 0.34 0.38 0.46 0.47 0.45 0.44 0.45 0.49 0.54 0.57 0.63 0.68 0.76 0.81 0.81 0.85 0.86 0.89 0.93 0.94 1.00 1.15 1.25 1.28 1.29 1.32 1.35
0.58 1.11 1.71 1.43 1.03 0.57 0.28 0.23 0.30 0.40 0.45 0.39 0.35 0.32 0.30 0.28 0.25 0.26 0.26 0.34 0.44 0.45 0.46 0.48 0.52 0.55 0.56 0.57 0.62 0.73 0.79 0.78 0.86 0.93 0.95 0.92 0.88 0.92 1.04 1.15 1.25 1.29 1.30 1.26
0.60 1.09 1.88 1.63 1.24 0.59 0.36 0.23 0.21 0.32 0.55 0.34 0.30 0.32 0.30 0.29 0.38 0.30 0.23 0.30 0.40 0.39 0.42 0.47 0.49 0.48 0.51 0.55 0.59 0.70 0.79 0.76 0.83 0.90 0.96 0.89 0.80 0.78 0.82 0.94 1.13 1.24 1.25 1.20
0.98 1.53 1.82 1.39 1.13 0.50 0.33 0.23 0.25 0.53 0.62 0.32 0.30 0.32 0.32 0.37 0.44 0.35 0.29 0.34 0.38 0.35 0.39 0.41 0.43 0.44 0.53 0.58 0.57 0.64 0.74 0.80 0.84 0.89 0.96 0.88 0.79 0.78 0.79 0.86 1.04 1.17 1.24 1.23
0.79 1.10 1.11 1.03 1.18 0.65 0.32 0.33 0.54 0.62 0.35 0.26 0.24 0.25 0.27 0.26 0.25 0.24 0.27 0.33 0.35 0.31 0.32 0.33 0.37 0.42 0.49 0.55 0.59 0.65 0.72 0.79 0.87 0.91 0.90 0.90 0.87 0.83 0.84 0.88 1.01 1.14 1.22 1.28
0.60 0.78 0.80 0.75 0.66 0.45 0.37 0.45 0.47 0.38 0.29 0.22 0.23 0.22 0.21 0.21 0.22 0.25 0.28 0.30 0.33 0.32 0.31 0.31 0.35 0.39 0.45 0.53 0.60 0.69 0.76 0.75 0.83 0.88 0.90 0.90 0.91 0.89 0.90 0.94 1.03 1.15 1.21 1.25
0.40 0.43 0.57 0.54 0.36 0.30 0.31 0.33 0.32 0.27 0.24 0.21 0.21 0.21 0.20 0.20 0.20 0.24 0.26 0.27 0.29 0.30 0.30 0.31 0.34 0.37 0.46 0.53 0.57 0.66 0.73 0.72 0.72 0.78 0.85 0.85 0.89 0.94 0.98 1.01 1.04 1.12 1.21 1.27
0.35 0.41 0.52 0.49 0.30 0.26 0.26 0.26 0.27 0.23 0.21 0.19 0.20 0.20 0.20 0.21 0.21 0.23 0.26 0.26 0.28 0.33 0.33 0.34 0.37 0.40 0.48 0.55 0.62 0.68 0.69 0.67 0.68 0.70 0.81 0.87 0.92 0.98 1.01 1.04 1.08 1.15 1.17 1.30
0.27 0.37 0.51 0.47 0.31 0.34 0.30 0.26 0.25 0.24 0.23 0.23 0.23 0.23 0.20 0.22 0.25 0.24 0.25 0.27 0.30 0.35 0.37 0.37 0.38 0.43 0.50 0.57 0.68 0.71 0.66 0.64 0.67 0.72 0.78 0.87 0.94 0.96 0.95 0.94 1.01 1.17 1.20 1.23